Regional Weather Roundup
Issued by NWS

Home | Current Version | Previous Version | Graphics & Text | Print | Product List | Glossary On
Versions: 1 2 3 4 5 6 7 8 9 10 11 12 13 14 15 16 17 18 19 20 21 22 23 24 25 26 27 28 29 30 31 32 33 34 35 36 37 38 39 40 41 42 43 44 45 46 47 48 49 50
448
ASUS45 KPSR 271410
RWRAZ

ARIZONA HOURLY REGIONAL WEATHER ROUNDUP
NATIONAL WEATHER SERVICE PHOENIX AZ
700 AM MST TUE SEP 27 2016

NOTE: FAIR INDICATES FEW OR NO CLOUDS BELOW 12,000 FEET WITH NO
SIGNIFICANT WEATHER AND/OR OBSTRUCTIONS TO VISIBILITY.

AZZ001>003-036-271500-
NORTHWEST ARIZONA

CITY           SKY/WX    TMP DP  RH WIND       PRES   REMARKS
BULLHEAD CITY  PTCLDY    73  46  38 NE5       29.97R
KINGMAN        PTCLDY    61  32  33 SE5       30.11R
$$

AZZ004>008-015-016-018-271500-
NORTH CENTRAL ARIZONA

CITY           SKY/WX    TMP DP  RH WIND       PRES   REMARKS
GRAND CANYON   CLEAR     42  35  76 NE3       30.31S
PRESCOTT       LGT RAIN  57  51  80 S3        30.20S
FLAGSTAFF      CLOUDY    49  34  56 E7        30.31R
PAYSON         CLOUDY    57  48  72 NE6       30.25S
PAGE           CLEAR     57  39  51 NW3       30.21R
$$

AZZ009>014-017-271500-
NORTHEAST ARIZONA

CITY           SKY/WX    TMP DP  RH WIND       PRES   REMARKS
WINSLOW        LGT RAIN  55  35  47 W3        30.24R
SAINT JOHNS    PTCLDY    57  42  57 NE3       30.26R
WINDOW ROCK    MOCLDY    45  30  55 CALM      30.35S
SHOW LOW       MOCLDY    48  46  93 S6        30.29S
$$

AZZ023-271500-
GREATER PHOENIX AREA

CITY           SKY/WX    TMP DP  RH WIND       PRES   REMARKS
PHOENIX        PTCLDY    73  49  42 SE13G23   30.01R
BUCKEYE        MOCLDY    73  46  38 E12       30.01R
GLENDALE       MOCLDY    72  52  49 E7        30.02R
LUKE AFB       MOCLDY    74  49  41 E5        30.00R
DEER VALLEY    PTCLDY    73  47  39 SE9       30.02R
SCOTTSDALE     PTCLDY    72  48  42 SE5       30.05R
MESA-FALCON    PTCLDY   N/A N/A N/A SE6       30.02R
MESA-GATEWAY   MOCLDY    70  48  46 E10       30.05R
CHANDLER       MOCLDY    73  48  40 MISG      30.04R
$$

AZZ027-028-271500-
SOUTHWEST MARICOPA COUNTY AND PINAL COUNTY

CITY           SKY/WX    TMP DP  RH WIND       PRES   REMARKS
CASA GRANDE    CLEAR     70  46  43 E10       30.03S
GILA BEND      PTCLDY    74  47  37 E15       29.96R
$$

AZZ503-504-507>509-271500-
SOUTHEAST ARIZONA

CITY           SKY/WX    TMP DP  RH WIND       PRES   REMARKS
TUCSON         CLOUDY    62  54  74 SE16      30.11F
DAVIS-MONTHAN  CLOUDY    59  55  87 SE13      30.11R
RYAN FIELD     CLEAR     63  55  77 E9        30.09
NOGALES        CLOUDY    56  52  86 NE8       30.12S THUNDER
SIERRA VISTA   CLOUDY    52  52 100 NE5       30.20R THUNDER
DOUGLAS        MOCLDY    57  49  74 CALM      30.17R
SAFFORD        CLOUDY    60  48  64 S8        30.19R
$$

AZZ020-021-025-026-031-271500-
SOUTHWEST ARIZONA

CITY           SKY/WX    TMP DP  RH WIND       PRES   REMARKS
YUMA           MOCLDY    77  48  35 NE8       29.90R
$$

CAZ031-033-041-043-047-048-061-271500-
SOUTHERN CALIFORNIA

CITY           SKY/WX    TMP DP  RH WIND       PRES   REMARKS
DOWNTOWN L.A.  CLEAR     75  45  34 CALM      29.85R
L.A. AIRPORT   PTCLDY    77  39  25 NE9       29.84S
SAN DIEGO      MOCLDY    81  53  37 S7        29.85R
BURBANK        CLEAR     70  36  28 CALM      29.88S
ONTARIO        MOCLDY    74  42  31 CALM      29.89F
RIVERSIDE      MOCLDY    70  44  39 CALM      29.90R
PALM SPRINGS   CLEAR     75  52  44 N7        29.92S
EL CENTRO NAS  MOCLDY    71  48  43 CALM      29.91R
IMPERIAL       PTCLDY    72  53  51 CALM      29.89R
BLYTHE         PTCLDY    76  50  40 NE12      29.93R
NEEDLES        MOCLDY    77  49  37 S6        29.97R
$$

NVZ020-UTZ003-271500-
SOUTHERN NEVADA-UTAH

CITY           SKY/WX    TMP DP  RH WIND       PRES   REMARKS
LAS VEGAS      PTCLDY    70  32  24 SW3       30.03R
SALT LAKE CITY CLEAR     53  47  79 SE8       30.23S
$$

NMZ009-TXZ055-271500-
NEW MEXICO-WEST TEXAS

CITY           SKY/WX    TMP DP  RH WIND       PRES   REMARKS
ALBUQUERQUE    CLOUDY    52  35  52 N10       30.31R
EL PASO        CLOUDY    57  43  59 CALM      30.26S
$$


........................KEY........................
SKY/WX - SKY CONDITION/WEATHER
TMP    - TEMPERATURE IN FAHRENHEIT
DP     - DEW POINT IN FAHRENHEIT
RH     - RELATIVE HUMIDITY IN PERCENT
WIND   - DIRECTION AND SPEED IN MILES PER HOUR (MPH)
VRB    - VARIABLE WIND DIRECTION
PRES   - MEAN SEA LEVEL PRESSURE IN INCHES OF MERCURY
         F - FALLING PRESSURE   R - RISING PRESSURE
         S - STEADY PRESSURE
VSB    - VISIBILITY IN MILES
HX     - HEAT INDEX IN FAHRENHEIT
WCI    - WIND CHILL INDEX IN FAHRENHEIT
TC     - TEMPERATURE IN CELSIUS WHICH IS ALSO KNOWN AS
         TEMPERATURE IN CENTIGRADE
AFB    - AIR FORCE BASE
         LUKE AFB IS LUKE AIR FORCE BASE
         DAVIS-MONTHAN IS DAVIS-MONTHAN AIR FORCE BASE
NAS    - NAVAL AIR STATION
         EL CENTRO NAS IS EL CENTRO NAVAL AIR STATION
N/A    - NOT AVAILABLE





USA.gov is the U.S. government's official web portal to all federal, state and local government web resources and services.